Weather History for Denver, CO

Change the Weather History Date:

Tuesday, February 5, 2013

  Actual Average Record
Temperature  
Mean Temperature 40 °F 31 °F  
Max Temperature 59 °F 45 °F 76 °F (1963)
Min Temperature 21 °F 17 °F -24 °F (1989)
Degree Days  
Heating Degree Days 25 34  
Month to date heating degree days 132 170  
Since 1 July heating degree days 3432 3701  
Cooling Degree Days 0 0  
Month to date cooling degree days 0 0  
Year to date cooling degree days 0 0  
Moisture  
Dew Point 13 °F    
Average Humidity 38    
Maximum Humidity 58    
Minimum Humidity 17    
Precipitation  
Precipitation 0.00 in 0.01 in 0.67 in (1881)
Month to date precipitation 0.00 0.06  
Year to date precipitation 0.31 0.47  
Snow  
Snow 0.00 in - - ()
Month to date snowfall 0  
Since 1 July snowfall 17  
Snow Depth 0.00 in    
Sea Level Pressure  
Sea Level Pressure 29.89 in    
Wind  
Wind Speed 10 mph (South)    
Max Wind Speed 22 mph    
Max Gust Speed 30 mph    
Visibility 10 miles    
Events      
T = Trace of Precipitation, MM = Missing Value Source: NWS Daily Summary

Daily Weather History Graph

Daily Weather History Graph

Search for Another Location

Airport:

Trip Planner

Search our weather history database for the weather conditions in past years. The results will help you decide how hot, cold, wet, or windy it might be!

Date:

Astronomy

Feb. 05, 2013 Rise Set
Actual Time 7:02 AM MST 5:23 PM MST
Civil Twilight 6:34 AM MST 5:51 PM MST
Nautical Twilight 6:02 AM MST 6:23 PM MST
Astronomical Twilight 5:30 AM MST 6:55 PM MST
Moon 2:46 AM MST (2/5) 12:43 PM MST (2/5)
Length of Visible Light 11h 17m
Length of Day
10h 20m
Waning Crescent, 26% of the Moon is Illuminated
Feb 5
Waning Crescent
Feb 10
New
Feb 17
First Quarter
Feb 25
Full
Mar 4
Last Quarter

Hourly Weather History & Observations

Time (MST) Temp. Windchill Dew Point Humidity Pressure Visibility Wind Dir Wind Speed Gust Speed Precip Events Conditions
12:53 AM 30.0 °F 20.0 °F 12.0 °F 47% 29.85 in 10.0 mi SSW 12.7 mph - N/A   Partly Cloudy
1:53 AM 28.0 °F 20.0 °F 12.0 °F 51% 29.88 in 10.0 mi SSW 8.1 mph - N/A   Partly Cloudy
2:53 AM 34.0 °F 27.2 °F 12.0 °F 40% 29.86 in 10.0 mi SSW 8.1 mph - N/A   Partly Cloudy
3:53 AM 35.1 °F 26.4 °F 12.0 °F 39% 29.87 in 10.0 mi SSW 12.7 mph - N/A   Partly Cloudy
4:53 AM 30.9 °F 22.8 °F 12.0 °F 46% 29.92 in 10.0 mi SW 9.2 mph - N/A   Scattered Clouds
5:53 AM 28.0 °F 22.8 °F 12.9 °F 53% 29.97 in 10.0 mi SSW 4.6 mph - N/A   Scattered Clouds
6:53 AM 27.0 °F 23.0 °F 12.0 °F 53% 29.99 in 10.0 mi SSE 3.5 mph - N/A   Scattered Clouds
7:53 AM 28.0 °F 19.3 °F 15.1 °F 58% 30.03 in 10.0 mi SSE 9.2 mph - N/A   Scattered Clouds
8:53 AM 39.9 °F 36.7 °F 17.1 °F 40% 30.00 in 10.0 mi SE 4.6 mph - N/A   Scattered Clouds
9:53 AM 46.9 °F - 14.0 °F 27% 29.96 in 10.0 mi SE 13.8 mph - N/A   Scattered Clouds
10:53 AM 51.1 °F - 10.9 °F 20% 29.99 in 10.0 mi SSE 8.1 mph - N/A   Scattered Clouds
11:53 AM 53.1 °F - 12.0 °F 20% 29.98 in 10.0 mi ESE 9.2 mph 17.3 mph N/A   Mostly Cloudy
12:53 PM 54.0 °F - 10.9 °F 18% 29.91 in 10.0 mi SE 5.8 mph - N/A   Mostly Cloudy
1:53 PM 57.0 °F - 12.0 °F 17% 29.86 in 10.0 mi SE 8.1 mph - N/A   Scattered Clouds
2:53 PM 57.0 °F - 12.0 °F 17% 29.82 in 10.0 mi Calm Calm - N/A   Scattered Clouds
3:53 PM 57.0 °F - 15.1 °F 19% 29.81 in 10.0 mi South 3.5 mph - N/A   Mostly Cloudy
4:53 PM 55.0 °F - 12.0 °F 18% 29.82 in 10.0 mi South 15.0 mph - N/A   Mostly Cloudy
5:53 PM 46.0 °F 40.2 °F 12.0 °F 25% 29.86 in 10.0 mi South 12.7 mph - N/A   Mostly Cloudy
6:53 PM 45.0 °F 37.9 °F 12.9 °F 27% 29.86 in 10.0 mi South 16.1 mph - N/A   Mostly Cloudy
7:53 PM 48.0 °F - 12.0 °F 24% 29.85 in 10.0 mi South 17.3 mph - N/A   Mostly Cloudy
8:53 PM 46.0 °F 39.6 °F 12.0 °F 25% 29.80 in 10.0 mi South 15.0 mph - N/A   Mostly Cloudy
9:53 PM 46.0 °F 39.0 °F 12.0 °F 25% 29.77 in 10.0 mi SSW 17.3 mph 29.9 mph N/A   Mostly Cloudy
10:53 PM 44.1 °F 36.5 °F 12.9 °F 28% 29.74 in 10.0 mi SSW 17.3 mph - N/A   Mostly Cloudy